ATLAS 5 CENTAUR DEB, 43980

Orbit data source: Space-Track

ATLAS 5 CENTAUR DEB, 43980 is space debris in HEO originally from a launch on Wed, 17 Sep 2014 UTC launched from the Air Force Eastern Test Range (AFETR). Debris objects in space refer to the collection of defunct objects orbiting the Earth. Examples of debris include non-operational satellites, rocket bodies, and fragments generated from explosions, collisions, or faulty payload assembly.

Loading next visibility...
Identifier
43980, 2014-055AK
Orbit
HEO
Country
Flag of USUS
Related business
Flag of USUnited Launch Alliance/Lockheed Martin (US)
Manufacturer
Unknown
Mission
Spacecraft
Bus & Motor
Unknown
Mass
Unknown
Launch date (UTC)
2014-09-17 (12 years ago)
Launch vehicle
Unknown
Launch site
Air Force Eastern Test Range (AFETR)
Object type
Payload
Rocket body
Debris
Shape & HBR
Unknown shape, 1.1 m
Radar Cross Section
Medium (>0.1 m² and <1 m²)

Expand to show TLE details & history
Last TLE update: 2 days ago

TLE from 2 days ago
0 ATLAS 5 CENTAUR DEB
1 43980U 14055AK  26170.98725831 -.00000046  00000-0  00000-0 0  9999
2 43980  19.9496 146.8048 4765075 155.4254 237.8706  1.83781865 52237
Epoch: 2026-06-19T23:41Z
TLE epoch observation values (Epoch: 2026-06-19T23:41:39.117Z)
Latitude
Longitude
-116.83955°
Altitude
32,009.451 km
Speed
2.571 km/s
True Right ascension
09h 47m 07s
True Declination
0° 00' 00"
Sunlit
Object was in daylight at epoch
Visualization orbit readout
Latitude
Unknown
Longitude
Unknown
Altitude
Unknown
Speed
Unknown
Apparent Right ascension
Unknown
Apparent Declination
Unknown
Sunlit
N/A
Visualization observer readout
Local Sidereal Time
21:38:08
Azimuth
Unknown
Elevation
Unknown
Doppler factor
Unknown
Orbital elements
Apogee altitude
35,193.645 km
Perigee altitude
8,361.047 km
Semi-major axis
28,155.483 km
Eccentricity
0.47651
Inclination
19.9496°
RAAN
146.8048°
Arg. of periapsis
155.4254°
True anomaly
204.60806°
Mean anomaly
237.8706°
Eccentric anomaly
220.23549°
Mean motion
0.45941 °/min
Orbital period
783.62 mins
BSTAR
0
Loading maneuver chart data...
Computing Atmospheric mass density...

Documentation

Showing up to 5 results
|